Wind_Speed
31 31 32 32 33 33 31 29 26 24 23 22 22 22 20 18 17 16 14 13 12 11 11 11 10 9 9 8 8 7 7 6 5 5 4 4 4 4 4 4 4 3 3 4 4 5 6 6 7
33 33 34 34 35 34 32 29 27 25 25 24 24 23 22 20 19 18 16 15 14 13 12 12 11 11 10 10 9 9 8 8 7 6 5 5 5 5 6 6 5 5 5 5 6 6 7 8 8
35 36 36 36 36 34 31 29 28 27 27 27 26 25 24 22 20 19 18 16 15 14 13 13 13 12 12 11 11 10 9 9 8 8 7 7 7 7 7 7 7 7 6 6 7 8 8 9 10
38 39 39 39 37 35 32 30 29 29 29 29 28 27 25 23 22 21 20 18 17 16 15 15 14 14 13 13 12 12 11 10 10 9 9 9 9 8 8 9 9 8 8 8 9 10 10 11 11
41 42 42 41 39 36 34 33 32 31 31 30 29 29 27 26 24 23 22 21 20 18 17 17 16 15 15 14 14 14 13 12 12 11 10 10 10 9 9 10 10 10 10 10 11 11 12 12 12
44 45 44 42 39 37 35 34 34 33 32 32 32 30 29 28 26 25 24 23 22 21 19 18 17 17 16 16 15 15 15 14 14 13 12 11 11 11 11 11 11 11 11 12 12 13 13 13 14
46 46 45 42 41 39 37 36 35 34 34 34 34 33 31 30 28 27 26 25 23 22 21 20 19 18 18 17 17 16 16 16 15 14 13 13 13 13 13 13 12 13 13 13 14 14 14 15 15
47 47 46 44 42 40 38 38 37 36 35 35 35 34 33 32 31 29 28 27 25 24 23 22 21 20 20 19 19 18 17 17 16 16 15 15 15 14 14 14 14 14 14 14 15 15 16 16 17
49 49 47 44 43 41 40 39 39 38 37 37 36 35 34 33 32 31 30 29 28 27 25 24 23 22 22 21 20 19 19 18 18 17 17 16 16 16 16 16 16 16 16 16 17 17 17 18 18
50 50 47 45 44 42 41 40 40 39 39 38 37 36 36 35 34 33 32 31 30 29 27 26 25 24 23 23 22 21 21 20 20 19 18 18 18 18 18 18 18 18 18 19 19 19 19 19 19
49 50 48 47 45 43 42 42 41 40 40 39 38 37 37 37 36 35 34 33 32 31 30 29 28 26 25 24 24 24 23 23 22 21 21 20 20 20 20 20 20 21 21 21 21 21 21 20 21
48 49 49 48 47 45 44 43 43 42 41 41 40 39 38 38 37 36 36 35 34 34 32 31 30 29 28 27 26 26 25 25 24 24 23 22 22 22 22 22 23 23 23 23 23 23 23 23 22
48 48 49 49 48 46 46 45 44 44 43 42 41 41 40 39 39 38 37 36 36 35 34 34 33 31 30 29 29 28 28 26 26 25 24 24 24 24 24 24 24 24 24 24 24 24 25 25 24
46 47 49 50 49 48 47 46 45 44 44 43 43 42 41 40 40 39 38 38 37 37 36 35 35 34 32 31 30 30 29 28 28 27 26 26 25 25 25 25 26 26 26 26 26 26 26 26 26
45 46 48 50 50 49 48 48 46 45 45 45 44 43 43 42 41 41 40 39 39 38 37 36 36 35 34 33 32 31 31 30 30 29 29 28 28 27 27 27 27 27 27 27 27 27 28 28 28
45 45 47 49 49 49 50 49 47 46 46 45 45 45 44 44 43 42 42 41 40 40 39 38 38 37 36 36 35 34 33 32 32 31 31 31 30 30 30 29 29 29 29 29 29 29 29 29 29
46 45 45 47 48 48 50 50 48 47 46 46 46 45 45 45 44 43 42 42 41 41 40 39 39 38 38 38 37 37 35 35 34 34 33 33 33 32 32 32 31 31 31 31 30 31 31 31 31
45 44 43 45 47 48 49 49 48 47 47 47 47 46 45 45 44 44 44 43 43 42 41 41 41 40 40 39 39 39 38 37 36 36 36 35 35 34 34 34 33 33 32 32 32 32 32 32 32
43 43 42 41 44 47 48 48 47 47 48 48 47 47 46 45 45 45 45 44 44 43 42 42 42 42 41 41 41 40 39 38 38 38 37 37 36 36 36 35 34 34 34 34 34 33 33 34 33
40 42 42 41 40 42 45 47 46 46 47 48 48 47 47 45 45 45 45 45 44 44 43 43 43 42 42 42 42 42 41 40 40 40 39 38 38 38 37 37 35 34 34 34 34 34 34 34 35
39 39 40 40 41 42 43 45 45 45 46 47 47 47 46 46 45 46 46 45 44 44 44 44 43 43 43 43 43 43 43 43 42 41 41 40 40 40 39 38 38 36 36 36 36 35 35 36 36
35 36 38 39 39 41 44 45 44 45 45 47 47 47 46 46 46 45 46 45 45 44 44 44 44 44 44 44 44 43 43 43 43 43 43 43 42 41 41 40 39 39 38 38 38 37 36 36 36
32 33 36 37 39 40 43 45 44 44 44 45 46 46 45 45 45 45 45 45 45 45 45 45 44 45 45 44 44 44 44 44 44 44 45 45 44 43 42 42 42 41 40 40 40 39 39 38 38
30 31 33 36 37 40 41 44 44 44 42 42 44 44 44 44 45 45 45 45 45 45 46 46 46 45 46 46 46 45 45 45 45 45 45 45 45 45 44 44 43 43 42 42 41 42 41 40 40
28 30 32 35 37 39 39 43 44 43 41 41 42 43 43 43 44 45 45 45 45 45 45 45 46 46 46 46 47 47 47 47 47 46 45 45 45 45 45 45 44 44 44 44 43 43 42 42 41
27 28 32 35 38 37 38 40 41 41 40 40 41 42 43 43 43 44 45 45 44 45 45 45 46 46 47 48 47 48 48 49 48 46 46 46 46 46 46 45 45 45 45 44 44 45 44 44 43
26 27 30 32 36 37 37 38 39 39 40 40 40 41 42 42 43 44 44 44 45 45 46 46 47 47 47 48 48 49 49 50 50 49 48 47 46 47 47 47 46 45 45 45 45 44 44 45 44
26 26 28 31 33 36 37 37 37 37 38 39 39 39 40 42 43 44 44 44 45 45 45 46 47 48 48 48 48 49 50 50 50 49 50 49 48 48 49 49 48 47 47 46 45 45 45 45 45
27 27 29 30 32 34 36 35 34 34 36 38 39 40 40 41 42 43 44 44 45 45 45 45 47 49 49 50 50 49 49 48 49 49 49 50 50 49 50 49 49 49 48 47 46 46 45 46 47
27 28 29 30 32 33 34 33 32 32 33 35 37 38 39 40 41 42 43 44 44 45 46 46 47 49 50 50 50 51 51 50 50 50 51 51 50 50 49 49 50 49 48 47 47 46 46 47 48
Wind_Direction
235 235 234 232 232 232 232 230 228 227 226 227 229 230 229 230 229 229 228 228 229 229 228 228 229 231 233 237 238 236 237 239 241 240 242 251 258 259 262 268 273 279 288 297 304 314 319 322 325
235 235 234 233 233 233 231 230 229 228 228 229 230 230 229 229 229 230 229 229 230 231 231 231 232 233 235 238 240 241 241 241 241 241 247 254 262 265 264 267 270 273 277 286 295 303 309 313 317
235 235 235 234 234 234 233 231 230 229 229 229 230 231 231 229 230 230 231 230 231 234 234 233 234 236 237 239 242 243 244 244 244 246 250 256 262 268 267 267 269 272 275 282 291 297 302 307 311
235 235 235 235 235 235 234 232 230 229 229 229 230 232 232 231 231 231 232 233 233 234 235 236 236 238 239 240 242 243 245 247 249 252 254 258 263 268 269 269 268 270 274 279 287 292 297 303 306
235 235 235 236 236 235 234 233 231 229 229 229 230 232 233 232 232 233 233 233 234 235 237 239 238 238 239 240 242 244 245 247 250 253 255 259 263 267 269 268 268 269 274 279 284 288 293 298 301
235 235 235 235 235 235 234 233 231 230 230 230 230 231 232 233 233 234 235 234 234 235 237 240 240 241 241 242 243 244 245 247 249 252 255 258 262 266 268 268 268 269 272 277 281 286 291 295 297
235 235 234 234 234 233 232 232 231 230 230 230 231 231 231 232 233 234 234 234 234 235 237 239 240 242 243 243 244 244 246 247 248 250 254 257 261 264 266 267 268 270 272 276 280 283 287 291 293
235 233 233 232 232 231 231 231 231 229 230 231 232 232 231 232 232 234 235 235 235 236 237 239 240 242 243 244 244 245 246 248 249 251 255 258 260 263 265 266 267 269 272 276 280 283 287 290 291
234 232 231 230 230 230 230 231 230 229 230 231 232 232 232 232 233 233 234 235 236 238 239 240 241 242 243 243 244 246 247 248 249 251 255 258 261 263 265 266 267 268 272 275 279 282 286 289 291
233 232 231 230 230 229 229 230 230 229 229 231 232 232 232 233 233 234 234 236 237 239 240 241 241 242 242 243 244 245 247 249 251 253 255 258 260 262 264 265 266 268 271 274 278 281 283 286 289
233 232 230 229 230 229 229 229 230 230 230 231 232 233 233 234 235 235 236 237 238 239 241 241 242 242 243 244 244 245 247 248 250 252 255 257 260 263 265 266 267 268 271 274 276 278 280 283 286
232 231 230 229 229 229 229 230 230 230 230 231 232 233 234 235 236 237 238 238 239 240 241 241 242 243 244 244 245 245 247 249 251 252 255 258 261 264 266 266 268 269 271 273 275 277 279 282 284
231 230 229 228 228 229 229 230 230 231 231 232 233 233 234 235 236 237 238 239 240 240 241 242 242 243 244 245 245 245 246 247 249 252 255 258 261 264 266 267 268 269 270 272 274 276 278 280 281
230 231 229 228 228 228 229 229 230 231 231 232 233 234 235 236 237 238 239 239 240 240 241 242 242 243 243 244 246 246 246 248 249 252 255 258 261 263 265 266 268 269 270 272 274 276 279 279 280
229 231 229 227 227 228 229 229 230 231 232 233 234 235 236 236 237 238 239 239 239 240 240 240 241 242 243 244 245 247 248 249 251 253 255 258 260 262 264 265 267 269 270 271 273 275 277 278 279
229 231 230 228 227 228 229 229 230 231 232 233 234 235 236 237 237 238 239 239 239 239 239 239 240 242 243 244 246 247 249 251 252 254 256 258 260 262 264 265 267 269 270 271 273 274 275 277 278
228 230 230 229 229 228 228 229 229 231 232 233 234 235 236 237 237 237 237 238 238 239 239 240 240 241 243 244 245 247 248 251 253 254 256 258 259 261 263 264 265 267 270 270 272 274 274 275 276
230 230 230 230 229 229 229 229 229 231 232 233 234 235 236 237 237 237 237 238 239 239 239 240 241 241 242 244 245 247 249 251 253 254 256 257 259 260 262 263 264 266 269 269 271 274 274 274 275
231 232 231 230 230 231 230 230 229 230 231 232 234 235 236 236 237 238 238 238 239 240 240 241 241 242 243 245 247 248 250 251 253 254 255 256 258 260 261 263 264 265 267 269 270 272 273 274 275
229 230 230 230 230 231 232 232 230 230 231 232 233 235 236 236 236 238 239 239 240 241 241 242 243 243 244 246 247 249 250 250 252 253 254 255 257 259 260 261 263 265 266 268 269 270 271 273 274
228 230 230 231 232 233 233 233 231 231 231 232 233 234 235 237 236 237 238 239 241 242 242 242 243 244 245 246 248 249 250 251 251 252 254 255 257 259 260 261 262 264 266 267 268 269 271 273 275
231 230 230 232 233 234 234 236 232 232 233 233 234 235 235 237 237 237 238 239 240 241 242 243 243 243 245 246 247 249 250 251 252 253 254 256 257 258 259 260 261 263 265 266 268 270 271 272 273
232 232 231 233 236 237 236 237 233 233 234 234 235 235 236 237 238 238 239 240 240 241 242 244 244 245 245 246 247 249 250 252 253 253 254 256 256 257 258 259 261 262 264 265 267 268 270 271 272
230 232 232 234 237 239 238 238 235 234 235 235 236 236 237 238 239 239 239 240 241 242 243 243 244 245 246 247 248 249 250 251 253 254 255 255 256 256 257 259 260 262 263 265 266 267 269 270 271
231 231 233 234 236 237 236 238 237 236 236 236 237 238 238 240 240 240 240 241 242 243 243 243 244 245 246 247 248 249 250 251 253 254 255 256 257 257 257 258 260 261 262 263 264 266 267 269 271
230 233 235 236 236 239 239 240 239 237 236 237 239 240 240 240 240 240 240 240 242 243 244 245 244 245 246 247 248 249 250 251 252 253 254 255 257 257 258 259 260 260 261 262 264 266 267 269 271
232 234 236 240 240 241 242 243 241 239 240 239 240 241 242 242 240 241 242 242 243 245 246 246 246 247 247 248 248 249 250 251 251 252 254 256 257 257 257 258 258 259 260 261 263 265 267 269 271
236 238 238 240 242 244 246 247 245 243 244 243 243 243 243 244 243 244 244 244 244 245 246 247 247 248 249 249 249 250 250 251 252 253 254 255 256 257 257 257 258 259 260 262 263 265 267 269 271
236 237 240 241 244 247 249 248 248 248 247 248 247 247 246 245 245 245 245 245 245 246 247 248 249 249 250 250 250 251 251 252 253 253 254 256 257 258 258 259 259 260 261 262 263 265 267 269 270
241 240 243 243 245 248 252 252 249 251 250 251 250 249 249 247 246 245 245 245 245 246 248 249 250 250 251 251 251 251 252 253 254 255 256 258 258 259 259 259 259 260 260 262 263 266 267 269 270
Height
5816 5819 5821 5824 5827 5829 5832 5837 5842 5845 5848 5850 5852 5854 5856 5859 5862 5866 5866 5866 5867 5869 5870 5871 5873 5874 5875 5876 5877 5878 5879 5880 5881 5881 5882 5883 5883 5884 5884 5885 5886 5886 5886 5887 5887 5887 5887 5887 5887
5810 5813 5816 5818 5820 5824 5829 5834 5839 5842 5845 5846 5848 5850 5853 5856 5858 5861 5862 5864 5865 5867 5868 5869 5871 5872 5873 5875 5876 5877 5878 5879 5879 5880 5881 5882 5882 5883 5883 5884 5885 5885 5885 5886 5886 5886 5886 5886 5886
5803 5806 5809 5812 5815 5820 5826 5831 5835 5838 5840 5842 5844 5847 5850 5853 5855 5857 5859 5861 5863 5865 5866 5867 5869 5870 5871 5873 5874 5875 5876 5877 5878 5879 5880 5880 5881 5882 5882 5883 5883 5884 5884 5884 5885 5885 5884 5884 5884
5796 5799 5802 5806 5810 5816 5821 5826 5829 5832 5835 5837 5840 5843 5846 5849 5852 5854 5856 5858 5860 5862 5863 5865 5866 5868 5869 5870 5872 5873 5874 5875 5876 5877 5878 5879 5879 5880 5881 5881 5882 5882 5883 5883 5883 5883 5883 5883 5882
5788 5790 5794 5798 5805 5810 5815 5819 5823 5826 5829 5833 5836 5839 5842 5845 5847 5850 5852 5855 5857 5859 5861 5862 5864 5865 5866 5868 5869 5870 5872 5873 5874 5875 5876 5877 5877 5878 5879 5879 5880 5880 5881 5881 5881 5881 5881 5881 5880
5779 5782 5786 5792 5799 5805 5809 5813 5817 5820 5824 5827 5830 5834 5837 5840 5843 5846 5849 5851 5853 5856 5857 5859 5861 5862 5864 5865 5866 5868 5869 5870 5871 5872 5873 5874 5875 5876 5877 5877 5878 5878 5879 5879 5879 5879 5879 5879 5878
5770 5773 5778 5786 5792 5797 5803 5806 5810 5814 5818 5821 5824 5828 5832 5835 5838 5841 5844 5847 5849 5852 5854 5856 5857 5859 5860 5862 5863 5864 5866 5867 5868 5870 5871 5872 5873 5873 5874 5875 5875 5876 5876 5876 5876 5877 5876 5876 5876
5759 5764 5770 5777 5783 5790 5795 5799 5803 5807 5811 5815 5818 5822 5826 5830 5833 5836 5839 5842 5845 5847 5850 5852 5854 5855 5857 5858 5860 5861 5863 5864 5865 5866 5868 5869 5870 5870 5871 5872 5872 5873 5873 5874 5874 5874 5874 5874 5873
5748 5755 5761 5769 5775 5782 5787 5791 5795 5799 5804 5808 5812 5817 5821 5824 5828 5831 5834 5837 5840 5843 5845 5848 5850 5851 5853 5855 5856 5858 5859 5861 5862 5863 5864 5865 5866 5867 5868 5869 5869 5870 5870 5870 5871 5871 5871 5870 5870
5737 5744 5754 5761 5767 5773 5779 5783 5788 5792 5797 5801 5805 5810 5814 5818 5822 5825 5829 5832 5835 5838 5841 5843 5845 5847 5849 5851 5852 5854 5855 5857 5858 5860 5861 5862 5863 5864 5864 5865 5866 5866 5867 5867 5867 5867 5867 5867 5866
5727 5736 5745 5751 5757 5763 5769 5775 5779 5784 5789 5794 5799 5804 5808 5811 5815 5819 5823 5827 5830 5833 5835 5838 5840 5842 5844 5846 5848 5849 5851 5853 5854 5856 5857 5858 5859 5860 5860 5861 5862 5863 5863 5863 5863 5863 5863 5863 5863
5719 5727 5734 5741 5748 5754 5760 5766 5771 5776 5782 5787 5792 5796 5801 5805 5809 5813 5817 5820 5824 5826 5829 5832 5835 5837 5839 5841 5843 5844 5846 5848 5850 5851 5852 5853 5854 5855 5856 5857 5857 5858 5859 5859 5859 5859 5859 5859 5858
5709 5717 5724 5731 5738 5744 5751 5757 5763 5768 5774 5779 5784 5788 5793 5798 5802 5806 5810 5813 5817 5820 5823 5826 5829 5831 5834 5836 5837 5839 5841 5843 5844 5846 5847 5848 5850 5851 5851 5852 5853 5853 5854 5854 5854 5854 5854 5854 5853
5701 5708 5715 5721 5728 5735 5742 5748 5754 5760 5766 5771 5776 5781 5786 5790 5795 5798 5802 5806 5810 5813 5816 5819 5822 5825 5827 5830 5832 5833 5835 5837 5839 5840 5842 5843 5844 5845 5846 5847 5848 5848 5849 5849 5849 5849 5849 5848 5848
5692 5699 5705 5711 5718 5726 5732 5739 5746 5752 5757 5763 5768 5773 5778 5782 5787 5791 5794 5798 5802 5805 5809 5812 5815 5818 5821 5823 5825 5827 5829 5831 5833 5835 5836 5837 5839 5840 5841 5841 5842 5842 5843 5843 5844 5844 5843 5843 5843
5683 5689 5695 5703 5709 5716 5724 5731 5738 5743 5749 5754 5759 5764 5769 5774 5778 5782 5786 5790 5793 5797 5801 5804 5808 5811 5813 5816 5818 5821 5823 5825 5827 5828 5830 5831 5833 5834 5834 5835 5836 5837 5837 5837 5838 5838 5837 5837 5837
5673 5680 5687 5695 5701 5708 5714 5722 5729 5734 5740 5746 5751 5756 5760 5765 5770 5774 5778 5781 5785 5789 5793 5796 5800 5803 5806 5808 5811 5814 5816 5818 5820 5822 5823 5825 5826 5827 5828 5829 5830 5830 5831 5831 5831 5831 5831 5831 5831
5668 5674 5681 5687 5693 5700 5706 5713 5720 5725 5731 5736 5742 5747 5752 5757 5761 5765 5769 5773 5777 5780 5784 5788 5791 5794 5797 5800 5803 5806 5808 5811 5813 5814 5816 5817 5819 5820 5821 5822 5823 5823 5824 5824 5824 5825 5824 5824 5824
5662 5668 5674 5681 5686 5692 5698 5704 5711 5716 5722 5727 5733 5738 5743 5748 5753 5756 5761 5764 5768 5772 5776 5779 5783 5786 5789 5792 5795 5798 5801 5803 5805 5807 5808 5810 5811 5812 5813 5814 5815 5816 5816 5817 5817 5817 5817 5817 5817
5655 5661 5667 5674 5679 5684 5690 5696 5702 5707 5713 5718 5724 5729 5734 5739 5743 5748 5752 5756 5760 5763 5767 5771 5774 5778 5781 5784 5787 5789 5792 5794 5796 5798 5800 5801 5803 5804 5805 5806 5807 5808 5809 5809 5809 5809 5809 5809 5809
5649 5655 5662 5667 5672 5676 5681 5687 5693 5698 5703 5709 5715 5720 5725 5730 5734 5738 5742 5747 5751 5755 5758 5762 5765 5769 5772 5775 5777 5780 5782 5785 5787 5789 5791 5793 5794 5795 5797 5798 5799 5800 5801 5801 5801 5802 5802 5802 5801
5644 5650 5655 5660 5665 5669 5674 5678 5686 5691 5695 5700 5706 5711 5716 5721 5725 5729 5733 5738 5742 5746 5749 5752 5756 5759 5762 5765 5768 5771 5773 5776 5778 5780 5782 5783 5785 5786 5788 5789 5790 5792 5792 5793 5793 5793 5793 5793 5793
5640 5645 5650 5654 5658 5662 5666 5670 5678 5682 5687 5693 5698 5702 5707 5712 5716 5720 5724 5728 5732 5735 5739 5743 5746 5750 5752 5755 5758 5761 5764 5766 5768 5770 5772 5774 5775 5777 5778 5780 5781 5782 5783 5784 5784 5785 5785 5784 5784
5635 5639 5643 5647 5650 5654 5659 5662 5669 5674 5680 5685 5690 5694 5698 5702 5707 5711 5715 5719 5722 5725 5729 5733 5736 5740 5743 5746 5748 5751 5754 5756 5758 5760 5762 5764 5765 5767 5768 5770 5771 5773 5774 5774 5775 5775 5775 5775 5775
5630 5634 5637 5639 5642 5647 5652 5654 5661 5668 5673 5677 5681 5686 5690 5693 5697 5701 5705 5709 5713 5716 5720 5723 5726 5730 5732 5735 5738 5740 5743 5746 5748 5750 5751 5753 5755 5756 5758 5759 5761 5762 5763 5764 5765 5765 5765 5765 5765
5626 5630 5633 5635 5637 5641 5645 5648 5656 5661 5665 5669 5673 5677 5680 5684 5688 5692 5695 5699 5703 5706 5709 5713 5716 5719 5722 5725 5727 5730 5733 5735 5737 5739 5741 5742 5744 5746 5747 5748 5750 5751 5752 5753 5754 5755 5755 5755 5755
5622 5625 5628 5631 5632 5635 5639 5643 5649 5654 5658 5662 5665 5668 5672 5675 5679 5682 5685 5689 5693 5696 5699 5702 5705 5708 5711 5714 5716 5719 5721 5723 5726 5728 5730 5732 5733 5734 5736 5737 5739 5740 5741 5743 5744 5744 5745 5745 5745
5619 5621 5624 5625 5627 5629 5633 5638 5644 5648 5651 5655 5658 5660 5663 5666 5669 5673 5676 5679 5683 5686 5689 5692 5695 5697 5700 5702 5705 5707 5710 5712 5714 5716 5719 5720 5721 5723 5724 5726 5727 5729 5730 5731 5733 5733 5734 5734 5734
5615 5617 5619 5621 5623 5625 5627 5634 5637 5641 5644 5646 5649 5651 5654 5657 5660 5663 5666 5670 5672 5675 5678 5681 5684 5686 5688 5691 5694 5696 5698 5700 5703 5705 5707 5708 5709 5711 5712 5714 5715 5717 5719 5720 5721 5722 5722 5723 5723
5610 5612 5615 5617 5619 5620 5622 5629 5631 5634 5636 5638 5640 5642 5645 5648 5651 5653 5656 5659 5662 5665 5667 5670 5672 5674 5677 5679 5682 5684 5687 5689 5691 5693 5695 5696 5697 5699 5700 5701 5703 5705 5707 5708 5709 5710 5710 5711 5711